Oklahoma City, OK

10:44 PM CDT on September 24, 2017 (GMT -0500)
Will Rogers World

Weather History for KOKC - January, 2014

Change the Weather History Date:

Sunday, January 12, 2014

  Actual Average Record
Temperature  
Mean Temperature 56 °F 39 °F  
Max Temperature 75 °F 49 °F 75 °F (2014)
Min Temperature 36 °F 29 °F -7 °F (1912)
Degree Days  
Heating Degree Days 9 26  
Month to date heating degree days 342 312  
Since 1 July heating degree days 1870 1667  
Growing Degree Days 10 (Base 50)    
Moisture  
Dew Point 28 °F    
Average Humidity 37    
Maximum Humidity 54    
Minimum Humidity 20    
Precipitation  
Precipitation 0.00 in 0.03 in 0.78 in (1927)
Month to date precipitation 0.06 0.47  
Year to date precipitation 0.06 0.47  
Snow  
Snow 0.00 in 0.00 in 2.50 in (1997)
Month to date snowfall 0.2 1.0  
Since 1 July snowfall 4.3 3.5  
Snow Depth 0.00 in    
Sea Level Pressure  
Sea Level Pressure 29.72 in    
Wind  
Wind Speed 19 mph (SSW)    
Max Wind Speed 38 mph    
Max Gust Speed 47 mph    
Visibility 10 miles    
Events      
T = Trace of Precipitation, MM = Missing Value Source: NWS Daily Summary

Daily Weather History Graph

Daily Weather History Graph

Search for Another Location

Airport or City:

Trip Planner

Search our weather history database for the weather conditions in past years. The results will help you decide how hot, cold, wet, or windy it might be!

Date:

Astronomy

Jan. 12, 2014 Rise Set
Actual Time 7:39 AM CST 5:38 PM CST
Civil Twilight 7:11 AM CST 6:06 PM CST
Nautical Twilight 6:40 AM CST 6:37 PM CST
Astronomical Twilight 6:09 AM CST 7:08 PM CST
Moon 3:06 PM CST (1/12) 4:40 AM CST (1/12)
Length of Visible Light 10h 54m
Length of Day
9h 58m
Waxing Gibbous, 90% of the Moon is Illuminated
Jan 12
Waxing Gibbous
Jan 15
Full
Jan 23
Last Quarter
Jan 30
New
Feb 6
First Quarter

Hourly Weather History & Observations

Time (CST) Temp. Windchill Dew Point Humidity Pressure Visibility Wind Dir Wind Speed Gust Speed Precip Events Conditions
12:52 AM 39.0 °F 32.8 °F 23.0 °F 53% 29.91 in 10.0 mi South 9.2 mph - N/A   Clear
1:52 AM 41.0 °F 34.7 °F 24.1 °F 51% 29.89 in 10.0 mi South 10.4 mph - N/A   Clear
2:52 AM 42.1 °F 35.2 °F 24.1 °F 49% 29.88 in 10.0 mi South 12.7 mph - N/A   Clear
3:52 AM 42.1 °F 35.7 °F 23.0 °F 47% 29.86 in 10.0 mi South 11.5 mph - N/A   Clear
4:52 AM 43.0 °F 36.8 °F 23.0 °F 45% 29.84 in 10.0 mi South 11.5 mph - N/A   Clear
5:52 AM 45.0 °F 38.9 °F 24.1 °F 44% 29.83 in 10.0 mi South 12.7 mph - N/A   Clear
6:52 AM 46.0 °F 40.6 °F 25.0 °F 44% 29.81 in 10.0 mi South 11.5 mph - N/A   Clear
7:52 AM 46.9 °F - 26.1 °F 44% 29.79 in 10.0 mi South 18.4 mph - N/A   Partly Cloudy
8:52 AM 52.0 °F - 27.0 °F 38% 29.78 in 10.0 mi South 23.0 mph 29.9 mph N/A   Partly Cloudy
9:52 AM 57.0 °F - 27.0 °F 32% 29.78 in 10.0 mi SSW 24.2 mph 34.5 mph N/A   Partly Cloudy
10:52 AM 63.0 °F - 28.0 °F 27% 29.76 in 10.0 mi SSW 29.9 mph 42.6 mph N/A   Partly Cloudy
11:52 AM 66.0 °F - 28.9 °F 25% 29.73 in 10.0 mi SSW 29.9 mph 40.3 mph N/A   Partly Cloudy
12:52 PM 69.1 °F - 28.9 °F 22% 29.65 in 10.0 mi SSW 33.4 mph 42.6 mph N/A   Partly Cloudy
1:52 PM 72.0 °F - 30.0 °F 21% 29.61 in 10.0 mi SSW 27.6 mph 43.7 mph N/A   Partly Cloudy
2:52 PM 73.0 °F - 30.9 °F 21% 29.59 in 10.0 mi SSW 27.6 mph 41.4 mph N/A   Partly Cloudy
3:52 PM 73.9 °F - 30.0 °F 20% 29.57 in 10.0 mi South 27.6 mph 35.7 mph N/A   Partly Cloudy
4:52 PM 73.0 °F - 30.0 °F 20% 29.58 in 10.0 mi SSW 24.2 mph 33.4 mph N/A   Partly Cloudy
5:52 PM 66.9 °F - 30.9 °F 26% 29.59 in 10.0 mi South 13.8 mph - N/A   Scattered Clouds
6:52 PM 64.0 °F - 32.0 °F 30% 29.58 in 10.0 mi South 11.5 mph - N/A   Mostly Cloudy
7:52 PM 64.9 °F - 32.0 °F 29% 29.58 in 10.0 mi South 17.3 mph - N/A   Mostly Cloudy
8:52 PM 64.9 °F - 34.0 °F 32% 29.60 in 10.0 mi SSW 20.7 mph 26.5 mph N/A   Mostly Cloudy
9:24 PM 62.6 °F - 30.2 °F 30% 29.68 in 10.0 mi WNW 20.7 mph 25.3 mph N/A   Mostly Cloudy
9:52 PM 55.9 °F - 28.9 °F 36% 29.72 in 10.0 mi NW 20.7 mph 28.8 mph N/A   Mostly Cloudy
10:52 PM 53.1 °F - 30.0 °F 41% 29.76 in 10.0 mi NNW 21.9 mph - N/A   Mostly Cloudy
11:52 PM 52.0 °F - 30.0 °F 43% 29.77 in 10.0 mi North 15.0 mph - N/A   Mostly Cloudy